EW4138 Weather Reports


time (UTC)temp
F
wind
direction
speed
knots
gust
knots
rain 1hr
in
rain 24hr
in
rain mn
in
humidity
%
barometer
mb
20260507052334 46 37 0.0 4.3 0.00 0.25 0.24 95 1009.4
20260507051837 46 1 0.9 5.2 0.00 0.25 0.24 95 1009.3
20260507051331 46 0 0.9 5.2 0.00 0.25 0.24 95 1009.4
20260507051130 46 356 0.9 4.3 0.00 0.25 0.24 95 1009.4
20260507050332 46 354 0.9 3.5 0.00 0.25 0.24 95 1009.3
20260507045832 46 343 0.0 5.2 0.00 0.25 0.24 95 1009.2
20260507045335 46 359 0.0 5.2 0.00 0.25 0.24 95 1009.2
20260507044831 46 30 0.9 4.3 0.00 0.25 0.24 95 1009.1
20260507044331 46 359 0.9 4.3 0.00 0.25 0.24 95 1009.1
20260507043833 46 12 0.9 5.2 0.00 0.25 0.24 95 1009.0
20260507043331 46 2 0.0 5.2 0.00 0.25 0.24 95 1008.9
20260507043133 46 25 0.9 5.2 0.00 0.25 0.24 95 1008.9
20260507042331 46 1 1.7 6.1 0.00 0.25 0.24 95 1008.8
20260507042139 47 1 0.9 6.1 0.00 0.25 0.24 95 1008.7
20260507041332 47 4 0.0 5.2 0.00 0.25 0.24 95 1008.7
20260507040832 47 347 0.0 3.5 0.00 0.25 0.24 95 1008.6
20260507040620 47 8 0.0 0.9 0.00 0.25 0.24 95 1008.5
20260507035831 47 16 0.0 3.5 0.01 0.25 0.24 95 1008.5
20260507035627 47 16 0.9 4.3 0.01 0.25 0.24 95 1008.4
20260507034913 47 11 0.9 4.3 0.01 0.25 0.24 95 1008.3
20260507033834 47 359 0.9 7.0 0.01 0.25 0.24 95 1008.2
20260507033334 47 1 0.0 4.3 0.02 0.25 0.24 95 1008.2
20260507032834 47 8 0.0 4.3 0.02 0.25 0.24 95 1008.2
20260507032333 47 30 0.9 4.3 0.02 0.25 0.24 95 1008.1
20260507031833 47 354 0.9 4.3 0.03 0.25 0.24 95 1008.1
20260507031334 47 4 1.7 7.8 0.04 0.25 0.24 95 1008.0
20260507030834 47 5 1.7 7.8 0.05 0.25 0.24 95 1008.0
20260507030334 47 359 0.9 7.0 0.05 0.25 0.24 95 1008.0
20260507025824 47 1 0.9 5.2 0.05 0.24 0.24 95 1008.0
20260507025324 47 46 0.9 4.3 0.06 0.24 0.24 95 1007.9
20260507024822 47 67 1.7 6.1 0.06 0.24 0.24 94 1007.9
20260507024322 47 338 1.7 7.8 0.08 0.24 0.24 94 1007.8
20260507024118 47 353 1.7 7.8 0.09 0.24 0.24 94 1007.7
20260507023320 47 0 1.7 6.1 0.09 0.24 0.23 94 1007.6
20260507022820 47 8 2.6 7.0 0.10 0.23 0.22 94 1007.5
20260507022318 47 25 3.5 7.8 0.11 0.23 0.22 94 1007.4
20260507022126 47 22 2.6 7.8 0.12 0.22 0.21 94 1007.5
20260507021307 47 27 1.7 7.0 0.13 0.21 0.20 94 1007.5
20260507020806 47 6 2.6 7.8 0.13 0.20 0.20 94 1007.4
20260507020307 47 20 3.5 7.8 0.13 0.20 0.19 94 1007.5
20260507015805 47 39 2.6 7.0 0.13 0.20 0.18 94 1007.5
20260507015307 47 0 1.7 7.8 0.11 0.18 0.17 94 1007.5
20260507014804 47 25 1.7 7.8 0.12 0.18 0.17 94 1007.5
20260507014303 47 34 1.7 7.0 0.11 0.17 0.15 94 1007.6
20260507013803 47 4 1.7 6.1 0.09 0.15 0.14 94 1007.6
20260507013306 47 31 1.7 7.0 0.09 0.14 0.13 94 1007.6
20260507012805 47 15 1.7 7.0 0.09 0.13 0.12 94 1007.6
20260507012306 47 0 2.6 7.0 0.08 0.12 0.11 94 1007.5
20260507011805 48 32 1.7 7.0 0.07 0.10 0.09 93 1007.5
20260507011304 48 10 2.6 7.0 0.06 0.09 0.08 93 1007.5
20260507010806 48 1 2.6 7.0 0.06 0.08 0.07 94 1007.5
20260507010303 48 30 2.6 6.1 0.06 0.07 0.06 93 1007.5
20260507005806 48 4 1.7 6.1 0.06 0.07 0.06 93 1007.5
20260507005305 48 10 0.9 6.1 0.06 0.07 0.06 93 1007.5
20260507005058 48 1 0.9 6.1 0.06 0.07 0.06 93 1007.6
20260507004250 48 25 0.9 6.1 0.05 0.06 0.05 93 1007.5
20260507003748 48 28 0.9 6.1 0.05 0.06 0.05 93 1007.5
20260507003247 48 29 1.7 6.1 0.04 0.06 0.04 92 1007.6
20260507002745 48 4 0.9 5.2 0.03 0.05 0.03 92 1007.6
20260507002244 48 1 0.9 5.2 0.03 0.06 0.03 92 1007.5
20260507001743 49 44 0.9 5.2 0.02 0.05 0.02 92 1007.5
20260507001244 49 1 1.7 5.2 0.02 0.05 0.02 91 1007.6
20260507000740 49 9 0.9 4.3 0.02 0.05 0.01 91 1007.5
20260507000234 49 352 0.9 6.1 0.01 0.05 0.01 91 1007.6
20260506235732 49 358 0.9 6.1 0.00 0.06 0.00 90 1007.5
20260506235528 50 357 0.9 5.2 0.00 0.08 0.00 90 1007.5
20260506235031 50 12 0.0 3.5 0.00 0.09 0.00 90 1007.5
20260506234226 50 12 0.9 3.5 0.00 0.10 0.00 90 1007.5
20260506233717 50 23 0.9 4.3 0.00 0.13 0.00 90 1007.4
20260506233207 50 346 0.9 5.2 0.00 0.14 0.00 90 1007.3
20260506232957 50 359 0.9 5.2 0.00 0.17 0.00 90 1007.3
20260506232459 50 34 0.9 5.2 0.00 0.18 0.00 90 1007.3
20260506231705 50 1 0.9 6.1 0.00 0.20 0.00 90 1007.2
20260506231206 50 340 1.7 7.8 0.00 0.20 0.00 90 1007.2
20260506230947 50 8 1.7 7.8 0.00 0.25 0.00 90 1007.2
20260506230150 50 356 0.9 7.0 0.00 0.30 0.00 90 1007.3
20260506225650 50 1 0.9 6.1 0.00 0.31 0.00 90 1007.2
20260506225140 51 1 1.7 6.1 0.00 0.31 0.00 90 1007.1
20260506224633 50 35 1.7 6.1 0.00 0.31 0.00 90 1007.1
20260506224132 50 39 2.6 8.7 0.00 0.31 0.00 90 1007.2
20260506223626 50 43 3.5 8.7 0.00 0.31 0.00 90 1007.2
20260506223110 50 44 3.5 9.6 0.00 0.32 0.00 90 1007.0
20260506222606 51 41 3.5 9.6 0.00 0.32 0.00 90 1007.0
20260506222105 51 56 2.6 7.8 0.00 0.32 0.00 90 1007.0
20260506221605 51 53 2.6 7.8 0.00 0.32 0.00 90 1007.0
20260506221400 51 31 1.7 7.8 0.00 0.32 0.00 90 1007.0
20260506220606 51 72 0.9 6.1 0.00 0.32 0.00 90 1006.9
20260506220358 51 31 0.9 5.2 0.00 0.33 0.00 90 1007.0
20260506215558 51 33 1.7 5.2 0.00 0.34 0.33 90 1007.0
20260506215054 51 33 1.7 7.0 0.00 0.35 0.33 90 1006.8
20260506214555 51 0 1.7 7.0 0.00 0.36 0.33 89 1006.8
20260506214052 51 34 1.7 6.1 0.00 0.40 0.33 90 1006.6
20260506213552 52 306 1.7 6.1 0.00 0.51 0.33 90 1006.6
20260506213052 52 15 0.9 6.1 0.00 0.53 0.33 89 1006.6
20260506212550 52 359 0.9 6.1 0.00 0.53 0.33 89 1006.6
20260506212050 52 20 0.9 6.1 0.00 0.54 0.33 89 1006.5
20260506211850 52 2 0.9 7.0 0.00 0.55 0.33 89 1006.5
20260506211355 52 1 0.9 7.0 0.00 0.55 0.33 89 1006.4
20260506210538 52 48 1.7 7.0 0.00 0.55 0.33 89 1006.4
20260506210039 52 15 1.7 7.0 0.00 0.55 0.33 89 1006.4
20260506205538 53 14 0.9 5.2 0.00 0.55 0.33 89 1006.2
20260506205033 53 358 0.9 7.0 0.00 0.55 0.33 89 1006.3
20260506204531 53 0 1.7 7.0 0.00 0.55 0.33 89 1006.3
20260506204033 53 1 2.6 8.7 0.00 0.55 0.33 88 1006.3
20260506203531 53 1 2.6 8.7 0.00 0.55 0.33 88 1006.3
20260506203031 53 0 1.7 6.1 0.00 0.55 0.33 89 1006.3
20260506202836 53 0 1.7 5.2 0.00 0.55 0.33 89 1006.3
20260506202326 53 27 2.6 7.0 0.00 0.55 0.33 89 1006.4
20260506201533 53 27 1.7 7.0 0.00 0.55 0.33 88 1006.4
20260506201022 54 50 1.7 7.0 0.00 0.55 0.33 88 1006.4
20260506200514 54 56 1.7 6.1 0.00 0.55 0.33 88 1006.4
20260506200308 54 342 1.7 6.1 0.00 0.55 0.33 88 1006.3
20260506195801 54 307 1.7 6.1 0.00 0.55 0.33 89 1006.4
20260506194951 54 34 0.9 6.1 0.00 0.55 0.33 89 1006.0
20260506194450 54 18 0.9 5.2 0.00 0.55 0.33 89 1005.9
20260506193952 54 23 0.9 4.3 0.00 0.55 0.33 89 1005.8
20260506193445 54 1 0.0 4.3 0.00 0.55 0.33 89 1005.8
20260506192939 54 0 0.9 6.1 0.00 0.55 0.33 89 1005.8
20260506192439 54 340 0.9 6.1 0.00 0.55 0.33 89 1005.8
20260506192239 54 359 0.9 6.1 0.00 0.55 0.33 89 1005.7
20260506191737 54 3 0.9 5.2 0.00 0.55 0.33 89 1005.7
20260506191230 54 14 0.0 4.3 0.00 0.55 0.33 89 1005.7
20260506190432 54 342 0.0 4.3 0.00 0.55 0.33 88 1005.6
20260506185933 54 359 0.0 4.3 0.00 0.55 0.33 88 1005.6
20260506185432 54 0 0.0 4.3 0.00 0.55 0.33 88 1005.6
20260506184936 55 17 0.0 4.3 0.00 0.55 0.33 88 1005.5
20260506184435 55 6 0.9 5.2 0.00 0.55 0.33 88 1005.5
20260506184024 55 6 0.9 5.2 0.00 0.55 0.33 87 1005.5
20260506182932 55 22 1.7 7.0 0.00 0.55 0.33 87 1005.4
20260506182738 55 1 2.6 7.0 0.00 0.55 0.33 87 1005.4
20260506181933 56 6 2.6 7.0 0.00 0.55 0.33 86 1005.4
20260506181434 56 1 1.7 7.0 0.00 0.55 0.33 86 1005.3
20260506181234 56 0 1.7 6.1 0.00 0.55 0.33 86 1005.4
20260506180731 56 31 2.6 7.8 0.00 0.55 0.33 85 1005.4
20260506175933 56 1 2.6 7.8 0.00 0.55 0.33 85 1005.3
20260506175431 56 354 1.7 7.0 0.00 0.55 0.33 86 1005.2
20260506175225 56 16 0.9 6.1 0.00 0.55 0.33 86 1005.2
20260506174425 56 9 0.9 5.2 0.00 0.55 0.33 86 1005.2
20260506173925 57 0 0.9 7.0 0.00 0.55 0.33 86 1005.1
20260506173424 57 2 0.0 7.0 0.00 0.55 0.33 86 1005.1
20260506172923 57 355 0.9 4.3 0.00 0.55 0.33 85 1005.0
20260506172425 57 16 0.9 5.2 0.00 0.55 0.33 85 1005.0
20260506171915 58 0 1.7 6.1 0.00 0.55 0.33 84 1004.9
20260506171717 58 6 1.7 7.0 0.00 0.55 0.33 83 1004.9
20260506170913 58 8 2.6 8.7 0.00 0.55 0.33 83 1004.9
20260506170412 59 359 2.6 8.7 0.00 0.55 0.33 83 1004.7
20260506165906 59 347 1.7 7.8 0.00 0.55 0.33 82 1004.7
20260506165406 60 350 0.9 7.8 0.00 0.55 0.33 81 1004.5
20260506164905 60 302 1.7 8.7 0.00 0.55 0.33 81 1004.5
20260506164405 60 327 1.7 8.7 0.00 0.55 0.33 81 1004.5
20260506163905 60 8 0.9 7.8 0.00 0.55 0.33 81 1004.6
20260506163713 60 4 0.9 7.0 0.00 0.55 0.33 80 1004.6
20260506162909 60 328 2.6 8.7 0.00 0.55 0.33 80 1004.7
20260506162407 60 1 2.6 8.7 0.00 0.55 0.33 80 1004.7
20260506161859 61 355 2.6 8.7 0.00 0.55 0.33 80 1004.7
20260506161727 61 359 1.7 8.7 0.00 0.55 0.33 79 1004.8
20260506160858 61 0 1.7 7.8 0.00 0.55 0.33 79 1004.8
20260506160355 61 357 0.9 6.1 0.00 0.55 0.33 79 1004.8
20260506160226 62 321 0.9 5.2 0.00 0.55 0.33 79 1004.9
20260506155341 62 8 0.9 6.1 0.00 0.55 0.33 78 1004.8
20260506155138 62 333 1.7 6.1 0.00 0.55 0.33 78 1004.8
20260506154737 63 26 2.6 7.8 0.00 0.55 0.33 76 1004.9
20260506153333 64 346 2.6 8.7 0.00 0.55 0.33 76 1004.8
20260506152836 64 344 2.6 8.7 0.00 0.55 0.33 76 1005.0
20260506152335 63 13 3.5 10.4 0.00 0.55 0.33 76 1004.9
20260506151834 63 345 2.6 10.4 0.00 0.55 0.33 75 1005.0
20260506151637 64 25 1.7 8.7 0.00 0.55 0.33 76 1005.0
20260506150833 64 357 1.7 8.7 0.00 0.55 0.33 76 1004.9
20260506150628 64 13 1.7 7.8 0.00 0.55 0.33 75 1004.9
20260506145834 64 288 2.6 7.8 0.00 0.55 0.33 75 1004.9
20260506145334 64 292 2.6 7.8 0.00 0.55 0.33 76 1004.8
20260506144838 64 294 2.6 7.8 0.00 0.55 0.33 75 1004.9
20260506144337 64 293 0.9 5.2 0.00 0.55 0.33 75 1004.9
20260506144129 64 309 1.7 6.1 0.00 0.55 0.33 75 1004.9
20260506143646 64 359 1.7 6.1 0.00 0.55 0.33 73 1004.8
20260506142835 65 300 1.7 5.2 0.00 0.55 0.33 74 1004.8
20260506142335 64 71 1.7 5.2 0.00 0.55 0.33 76 1004.7
20260506141835 64 9 1.7 7.0 0.00 0.55 0.33 75 1004.7
20260506141335 64 291 1.7 7.0 0.00 0.55 0.33 73 1004.7
20260506140834 64 314 0.9 6.1 0.00 0.55 0.33 76 1004.8
20260506140332 64 312 1.7 7.0 0.00 0.55 0.33 76 1004.9
20260506135832 64 330 2.6 7.0 0.00 0.55 0.33 75 1004.9
20260506135335 64 289 1.7 7.0 0.00 0.55 0.33 75 1005.0
20260506134835 64 294 1.7 7.0 0.00 0.55 0.33 75 1005.0
20260506134334 64 340 0.9 5.2 0.00 0.55 0.33 74 1004.9
20260506134126 65 354 1.7 8.7 0.00 0.55 0.33 72 1004.9
20260506133333 65 248 1.7 8.7 0.00 0.55 0.33 71 1004.9
20260506133126 65 326 0.9 5.2 0.00 0.55 0.33 71 1004.9
20260506132337 65 252 1.7 7.0 0.00 0.55 0.33 73 1004.9
20260506131832 64 298 2.6 8.7 0.00 0.55 0.33 73 1004.9
20260506131332 64 278 2.6 8.7 0.00 0.55 0.33 75 1005.0
20260506130834 64 303 2.6 7.0 0.00 0.55 0.33 75 1004.9
20260506130332 64 293 2.6 7.0 0.00 0.55 0.33 74 1005.0
20260506125833 65 333 2.6 8.7 0.00 0.55 0.33 73 1004.9
20260506125332 65 304 2.6 9.6 0.00 0.55 0.33 74 1004.9
20260506124929 65 292 2.6 9.6 0.00 0.55 0.33 72 1004.9
20260506123829 66 276 4.3 10.4 0.00 0.55 0.33 72 1005.0
20260506123328 65 276 3.5 7.8 0.00 0.55 0.33 75 1005.0
20260506122832 65 244 3.5 9.6 0.00 0.55 0.33 76 1004.9
20260506122330 65 326 4.3 11.3 0.00 0.55 0.33 73 1004.8
20260506121829 65 257 4.3 11.3 0.00 0.55 0.33 72 1004.9
20260506121621 66 201 3.5 9.6 0.00 0.55 0.33 72 1004.8
20260506120824 65 299 4.3 12.2 0.00 0.55 0.33 73 1004.7
20260506120325 65 273 5.2 12.2 0.00 0.55 0.33 73 1004.7
20260506115821 64 235 4.3 11.3 0.00 0.55 0.33 74 1004.7
20260506115321 64 272 4.3 11.3 0.00 0.55 0.33 75 1004.8
20260506114816 63 275 4.3 10.4 0.00 0.55 0.33 76 1004.8
20260506114403 64 282 5.2 11.3 0.00 0.55 0.33 76 1004.8
20260506113306 64 219 4.3 10.4 0.00 0.55 0.33 76 1004.9
20260506112804 63 201 2.6 9.6 0.00 0.55 0.33 78 1004.9
20260506112307 62 258 3.5 9.6 0.00 0.55 0.33 77 1005.0
20260506112059 63 240 3.5 11.3 0.00 0.55 0.33 77 1004.9
20260506111305 62 283 4.3 12.2 0.00 0.55 0.33 79 1004.9
20260506110805 62 286 4.3 13.0 0.00 0.55 0.33 79 1004.9
20260506110259 62 210 3.5 13.0 0.00 0.55 0.33 78 1004.9
20260506110050 62 232 3.5 13.0 0.00 0.55 0.33 78 1004.8
20260506105236 62 271 4.3 13.0 0.00 0.55 0.33 77 1004.8
20260506104735 63 231 4.3 12.2 0.00 0.55 0.33 78 1004.7
20260506104235 64 278 5.2 13.0 0.00 0.55 0.33 77 1004.7
20260506103735 64 244 5.2 13.0 0.00 0.55 0.33 76 1004.5
20260506103234 63 359 5.2 13.9 0.00 0.55 0.33 78 1004.5
20260506103029 62 251 5.2 13.9 0.00 0.55 0.33 77 1004.5
20260506102531 62 250 5.2 13.9 0.00 0.55 0.33 77 1004.5
20260506101732 63 227 4.3 13.9 0.00 0.55 0.33 77 1004.4
20260506101535 64 285 4.3 13.0 0.00 0.55 0.33 77 1004.5
20260506100732 64 199 5.2 15.6 0.00 0.55 0.33 78 1004.3
20260506100533 63 190 6.1 15.6 0.00 0.55 0.33 79 1004.4
20260506095733 63 198 5.2 13.0 0.00 0.55 0.33 80 1004.3
20260506095232 62 274 4.3 13.0 0.00 0.55 0.33 82 1004.3
20260506094733 61 248 4.3 11.3 0.00 0.55 0.33 83 1004.3
20260506094232 61 185 4.3 11.3 0.00 0.55 0.33 82 1004.1
20260506093733 61 300 4.3 13.9 0.00 0.55 0.33 82 1004.2
20260506093238 61 226 6.1 14.8 0.00 0.55 0.33 81 1004.0
20260506092734 61 254 5.2 14.8 0.00 0.55 0.33 80 1004.0
20260506092526 61 195 6.1 18.2 0.00 0.55 0.33 80 1003.8
20260506091813 61 249 7.0 18.2 0.00 0.55 0.33 79 1003.7
20260506090732 63 231 7.0 16.5 0.00 0.55 0.33 78 1003.6
20260506090233 62 188 7.0 16.5 0.00 0.55 0.33 79 1003.6
20260506085733 62 224 6.1 14.8 0.00 0.55 0.33 81 1003.4
20260506085233 61 218 5.2 13.9 0.00 0.55 0.33 83 1003.6
20260506084732 60 253 5.2 13.0 0.00 0.55 0.33 83 1003.5
20260506084234 61 252 5.2 13.0 0.00 0.55 0.33 82 1003.4
20260506083734 61 266 5.2 17.4 0.00 0.55 0.33 82 1003.1
20260506083234 62 219 6.1 17.4 0.00 0.55 0.33 80 1003.2
20260506082733 62 256 5.2 17.4 0.01 0.55 0.33 79 1003.1
20260506082233 62 258 5.2 14.8 0.01 0.55 0.33 81 1003.0
20260506082033 61 217 5.2 13.9 0.01 0.55 0.33 82 1003.0
20260506081232 60 281 4.3 13.9 0.01 0.55 0.33 83 1003.1
20260506080733 60 231 5.2 14.8 0.01 0.55 0.33 83 1003.0
20260506080233 60 256 5.2 14.8 0.01 0.55 0.33 84 1003.1
20260506073228 60 191 6.1 15.6 0.01 0.56 0.33 86 1003.0
20260506072728 60 195 4.3 12.2 0.00 0.55 0.32 88 1003.1
20260506072229 60 176 4.3 8.7 0.00 0.55 0.32 89 1003.0
20260506071722 59 190 3.5 11.3 0.00 0.55 0.32 90 1003.1
20260506071226 58 202 3.5 11.3 0.00 0.55 0.32 90 1003.1
20260506070712 58 200 2.6 8.7 0.00 0.55 0.32 91 1003.1
20260506070500 58 221 2.6 9.6 0.00 0.55 0.32 91 1003.1
20260506062204 57 180 1.7 8.7 0.00 0.56 0.32 93 1002.9
20260506061706 56 236 1.7 8.7 0.00 0.56 0.32 93 1002.9
20260506061202 56 160 0.9 5.2 0.00 0.57 0.32 94 1003.0
20260506060654 56 131 0.0 5.2 0.00 0.57 0.32 94 1003.0
20260506060144 56 148 0.0 4.3 0.00 0.57 0.32 94 1003.0